Location: Shenandoah County Park
(38.9356°N, 78.4524°W)
Time: 14:10:21
(UTC-05:00)

Transit 2A - Pass Details

Date: 16 October 2025
Orbit: 591 x 954 km, 66.7° (Epoch: 07 November)

Event Time Altitude Azimuth Distance (km) Brightness Sun altitude
Rises 21:44:09 0° 273° (W) 3,057 10.0 -37.4°
Reaches altitude 10° 21:49:19 10° 320° (NW) 2,266 9.0 -38.3°
Maximum altitude 21:49:40 10° 324° (NW) 2,270 9.0 -38.4°
Drops below altitude 10° 21:50:02 10° 328° (NNW) 2,284 9.0 -38.5°
Enters shadow 21:52:46 - 355° (N) 2,644 9.0 -39.0°
